Lid_Strength_Index
22 22 22 21 21 21 21 21 21 20 20 20 19 19 17 16 15 14 14 14 14 14 14 14 13 13 12 12 11 9 9 9 12 11 10 9 10 11 11 11 10 11 11
22 22 22 21 22 22 22 21 21 21 20 19 19 18 16 15 15 15 15 14 14 14 13 13 13 12 12 11 10 10 9 9 10 11 9 9 9 9 10 11 10 9 10
22 22 22 23 23 23 22 22 21 21 20 20 19 18 17 16 15 15 15 15 14 13 13 13 12 11 12 11 10 10 9 8 9 10 10 8 8 9 10 10 11 11 10
23 24 24 24 24 23 23 22 22 21 21 20 19 18 17 17 16 16 14 14 14 13 11 11 11 11 11 10 9 9 8 9 9 9 9 8 8 9 9 11 12 11 11
25 26 26 24 24 24 23 23 22 21 21 20 20 19 17 17 15 14 13 12 12 12 11 11 11 10 8 7 8 9 9 9 9 8 8 8 8 9 9 9 10 8 8
30 28 27 26 25 25 25 24 22 22 22 21 21 20 18 16 13 11 10 11 11 11 12 11 11 10 9 7 7 6 6 8 8 8 8 8 8 7 7 7 7 8 8
33 30 28 28 27 27 26 24 24 23 23 23 21 20 19 17 12 10 9 10 11 11 11 11 11 10 10 9 8 6 5 5 5 7 8 7 7 6 5 7 6 5 7
32 31 30 30 29 28 26 25 25 24 24 23 22 20 19 17 12 10 9 10 11 11 11 11 10 11 10 9 8 7 8 8 7 3 4 5 5 5 4 4 5 7 7
30 31 30 31 29 28 27 26 25 24 24 23 21 21 20 19 12 10 9 11 11 11 11 10 10 12 9 5 7 9 9 8 4 3 3 3 3 3 4 7 10 15 14
28 30 29 29 30 29 27 26 24 25 23 22 21 21 20 19 13 10 9 10 12 11 12 11 9 10 6 5 8 9 8 8 7 8 7 7 8 8 6 9 10 16 17
26 26 27 27 27 27 26 26 25 25 24 24 23 21 20 18 16 10 9 10 11 13 13 13 12 8 6 6 6 8 6 7 8 10 10 10 11 10 10 11 12 13 15
27 27 27 27 25 23 24 24 24 24 24 24 23 21 18 16 13 11 9 8 9 13 14 13 12 8 7 8 7 6 7 9 10 11 11 12 12 12 11 11 14 17 18
30 29 28 26 25 24 24 24 24 24 23 23 22 20 19 16 15 11 10 9 10 14 13 12 10 9 9 12 9 9 12 14 13 14 13 13 13 14 15 14 14 15 17
31 29 27 26 26 26 24 23 24 24 24 22 20 20 19 18 17 14 11 12 12 15 16 18 14 13 12 13 14 13 14 15 15 16 15 13 12 12 13 13 15 15 19
29 28 27 26 27 26 24 25 23 22 21 20 20 19 20 20 16 12 10 12 13 12 23 25 20 19 19 18 17 16 16 17 17 17 17 16 15 14 14 14 15 19 18
29 28 28 27 27 26 25 25 21 19 18 17 16 17 17 15 13 12 11 11 12 13 28 30 25 22 21 20 20 19 18 19 19 19 19 18 18 17 17 16 16 18 20
30 29 29 28 28 27 27 27 27 24 21 20 18 17 16 15 14 13 13 13 15 19 33 31 28 25 24 22 22 22 22 20 22 21 22 22 21 20 19 20 19 19 20
35 32 30 29 29 28 27 27 27 28 28 27 23 20 18 16 15 14 15 19 27 27 34 33 31 28 26 25 25 25 25 24 25 25 25 26 27 28 25 25 22 25 24
34 32 31 31 30 29 28 28 28 28 28 28 27 23 22 19 16 17 18 26 30 29 32 32 30 30 28 29 28 29 31 30 30 31 30 30 30 31 30 29 27 25 26
34 33 31 33 32 30 29 29 29 29 29 28 28 26 24 20 23 23 23 23 24 26 27 29 29 31 31 31 31 33 33 33 32 32 32 32 32 32 30 32 32 30 31
34 35 32 35 35 32 31 31 30 30 29 29 27 25 18 22 24 24 23 22 22 22 22 24 27 30 31 32 34 35 35 30 32 33 34 33 34 31 34 33 34 35 34
35 37 37 37 34 33 32 31 31 31 30 29 28 26 20 25 24 24 23 22 21 21 20 21 22 24 27 30 31 32 32 31 32 33 33 34 35 35 35 34 34 34 34
36 36 36 36 36 35 33 32 32 31 30 29 28 27 26 25 25 24 23 22 21 20 19 20 21 22 23 26 28 28 29 29 29 31 32 34 36 36 36 34 34 34 34
36 37 36 36 38 37 36 32 30 30 30 29 28 27 26 26 25 24 23 22 21 20 19 18 18 20 21 23 26 27 28 27 29 29 30 32 33 35 38 37 36 35 35
39 38 38 37 39 38 37 35 32 32 31 29 27 27 27 26 25 24 23 22 21 20 19 18 17 16 20 21 23 25 27 24 28 28 30 31 31 33 36 38 38 39 38
38 38 38 38 39 39 39 36 34 32 31 30 28 27 27 26 26 24 23 22 21 20 19 17 16 14 15 20 21 22 24 24 26 27 29 29 29 30 32 33 34 38 38